DW4779 Weather Reports


Display with metric or nautical units.
time (UTC)temp
F
wind
direction
speed
MPH
gust
MPH
rain 1hr
in
rain 24hr
in
rain mn
in
humidity
%
barometer
mb
20260509191556 66 224 1.0 7.0 0.00 0.00 0.00 34 1017.7
20260509190049 66 190 1.0 3.0 0.00 0.00 0.00 35 1017.7
20260509184550 66 190 0.0 6.0 0.00 0.00 0.00 36 1017.8
20260509183056 65 0 3.0 6.0 0.00 0.00 0.00 37 1017.7
20260509181550 63 190 5.0 7.0 0.00 0.00 0.00 38 1017.6
20260509180055 64 190 1.0 3.0 0.00 0.00 0.00 37 1017.7
20260509174549 63 224 0.0 6.0 0.00 0.00 0.00 37 1017.5
20260509173053 63 190 2.0 6.0 0.00 0.00 0.00 36 1017.4
20260509171549 65 0 1.0 5.0 0.00 0.00 0.00 34 1017.3
20260509170046 64 44 2.0 6.0 0.00 0.00 0.00 36 1017.3
20260509164546 63 0 0.0 4.0 0.00 0.00 0.00 38 1017.3
20260509163051 63 190 2.0 6.0 0.00 0.00 0.00 39 1017.3
20260509161557 63 190 0.0 1.0 0.00 0.00 0.00 40 1017.2
20260509160051 61 44 2.0 4.0 0.00 0.00 0.00 42 1017.0
20260509154551 60 190 1.0 4.0 0.00 0.00 0.00 42 1016.9
20260509153056 59 0 2.0 3.0 0.00 0.00 0.00 44 1016.8
20260509151546 58 190 1.0 3.0 0.00 0.00 0.00 44 1016.7
20260509150050 59 44 0.0 4.0 0.00 0.00 0.00 46 1016.6
20260509144545 59 45 1.0 3.0 0.00 0.00 0.00 43 1016.5
20260509143051 58 45 0.0 2.0 0.00 0.00 0.00 46 1016.4
20260509141546 56 190 1.0 3.0 0.00 0.00 0.00 48 1016.3
20260509140103 56 0 1.0 2.0 0.00 0.00 0.00 49 1016.2
20260509134549 55 0 0.0 0.0 0.00 0.00 0.00 54 1016.1
20260509133046 53 0 0.0 1.0 0.00 0.00 0.00 55 1015.9
20260509131549 52 0 0.0 1.0 0.00 0.00 0.00 55 1015.7
20260509130046 52 0 0.0 1.0 0.00 0.00 0.00 57 1015.6
20260509124552 51 0 0.0 2.0 0.00 0.00 0.00 57 1015.0
20260509123050 51 0 0.0 0.0 0.00 0.00 0.00 56 1015.1
20260509121554 51 0 0.0 2.0 0.00 0.00 0.00 55 1014.8
20260509120050 51 190 2.0 3.0 0.00 0.00 0.00 56 1014.8
20260509114547 51 0 0.0 1.0 0.00 0.00 0.00 55 1014.5
20260509113044 51 0 0.0 2.0 0.00 0.00 0.00 54 1014.4
20260509111539 51 0 0.0 4.0 0.00 0.00 0.00 54 1014.2
20260509110039 51 190 0.0 0.0 0.00 0.00 0.00 53 1014.1
20260509104539 52 0 0.0 0.0 0.00 0.00 0.00 53 1013.7
20260509103100 52 190 0.0 2.0 0.00 0.00 0.00 53 1013.7
20260509101548 52 0 0.0 2.0 0.00 0.00 0.00 52 1013.6
20260509100048 51 190 0.0 2.0 0.00 0.00 0.00 54 1013.4
20260509094554 51 190 0.0 1.0 0.00 0.00 0.00 54 1013.1
20260509093049 52 0 0.0 0.0 0.00 0.00 0.00 52 1012.9
20260509091551 52 0 0.0 0.0 0.00 0.00 0.00 51 1012.8
20260509090055 53 0 0.0 0.0 0.00 0.00 0.00 49 1012.7
20260509084549 54 0 0.0 1.0 0.00 0.00 0.00 49 1012.4
20260509083105 54 0 0.0 0.0 0.00 0.00 0.00 48 1012.3
20260509081540 55 0 0.0 1.0 0.00 0.00 0.00 46 1012.3
20260509080052 56 190 0.0 1.0 0.00 0.00 0.00 46 1012.3
20260509074608 56 190 1.0 3.0 0.00 0.00 0.00 45 1012.2
20260509073106 57 0 0.0 1.0 0.00 0.00 0.00 44 1012.1
20260509071555 57 0 0.0 2.0 0.00 0.00 0.00 43 1012.1
20260509070051 58 0 1.0 5.0 0.00 0.00 0.00 43 1012.0
20260509064547 57 224 0.0 3.0 0.00 0.00 0.00 42 1011.7
20260509063059 59 224 0.0 4.0 0.00 0.00 0.00 40 1011.4
20260509061543 60 0 0.0 8.0 0.00 0.00 0.00 39 1011.3
20260509060108 60 190 4.0 16.0 0.00 0.00 0.00 47 1010.9
20260509054549 61 190 5.0 14.0 0.00 0.00 0.00 44 1010.9
20260509053057 62 224 3.0 10.0 0.00 0.00 0.00 43 1010.8
20260509051548 63 224 6.0 18.0 0.00 0.00 0.00 39 1010.5
20260509050046 62 190 7.0 11.0 0.00 0.00 0.00 31 1010.6
20260509044542 63 224 4.0 9.0 0.00 0.00 0.00 26 1010.4
20260509043051 64 190 5.0 8.0 0.00 0.00 0.00 25 1010.3
20260509041548 66 190 3.0 10.0 0.00 0.00 0.00 25 1010.1
20260509040058 65 190 3.0 8.0 0.00 0.00 0.00 26 1009.9
20260509034546 63 190 0.0 2.0 0.00 0.00 0.00 26 1009.7
20260509033107 64 190 1.0 3.0 0.00 0.00 0.00 25 1009.5
20260509031544 63 0 0.0 0.0 0.00 0.00 0.00 26 1009.2
20260509030111 64 0 0.0 0.0 0.00 0.00 0.00 25 1008.8
20260509024547 66 0 0.0 4.0 0.00 0.00 0.00 24 1008.5
20260509023046 67 190 0.0 3.0 0.00 0.00 0.00 23 1008.3
20260509021547 68 190 1.0 6.0 0.00 0.00 0.00 23 1008.1
20260509014542 70 190 2.0 4.0 0.00 0.00 0.00 22 1007.9
20260509013047 71 190 2.0 11.0 0.00 0.00 0.00 20 1007.8
20260509011549 71 190 7.0 16.0 0.00 0.00 0.00 19 1007.7
20260509010040 72 190 8.0 14.0 0.00 0.00 0.00 18 1007.7
20260509004549 72 190 5.0 14.0 0.00 0.00 0.00 18 1007.7
20260509003046 73 190 10.0 21.0 0.00 0.00 0.00 17 1007.6
20260509001539 73 190 11.0 19.0 0.00 0.00 0.00 17 1007.7
20260509000039 73 190 12.0 22.0 0.00 0.00 0.00 18 1007.6
20260508234547 73 190 12.0 19.0 0.00 0.01 0.00 18 1007.6
20260508233048 73 190 13.0 25.0 0.00 0.01 0.00 18 1007.7
20260508231549 75 190 10.0 21.0 0.00 0.01 0.00 17 1007.5
20260508230045 75 224 14.0 24.0 0.00 0.01 0.00 17 1007.6
20260508224551 76 190 8.0 25.0 0.00 0.01 0.00 17 1007.6
20260508223041 76 190 16.0 28.0 0.00 0.01 0.00 16 1007.6
20260508221547 76 190 12.0 26.0 0.00 0.01 0.00 17 1007.5
20260508220052 76 190 10.0 20.0 0.00 0.01 0.00 17 1007.7
20260508214547 78 190 2.0 16.0 0.00 0.01 0.00 18 1007.7
20260508213054 78 224 5.0 17.0 0.00 0.01 0.00 17 1007.7
20260508211550 77 224 2.0 16.0 0.00 0.01 0.00 17 1007.9
20260508210051 76 190 8.0 19.0 0.00 0.01 0.00 18 1008.0
20260508204546 76 190 6.0 16.0 0.00 0.01 0.00 20 1008.0
20260508203046 75 224 3.0 7.0 0.00 0.01 0.00 19 1008.1
20260508201548 74 224 2.0 17.0 0.00 0.01 0.00 19 1008.2
20260508200049 77 190 1.0 6.0 0.00 0.01 0.00 22 1008.2
20260508194602 77 224 3.0 7.0 0.00 0.01 0.00 22 1008.3
20260508193105 76 224 1.0 4.0 0.00 0.01 0.00 22 1008.6